TimeMST,TemperatureF,Dew PointF,Humidity,Sea Level PressureIn,VisibilityMPH,Wind Direction,Wind SpeedMPH,Gust SpeedMPH,PrecipitationIn,Events,Conditions,WindDirDegrees,DateUTC
12:14 AM,19.4,-0.4,42,29.96,10.0,SW,8.1,-,N/A,,Clear,220,2013-02-13 07:14:00
12:33 AM,19.4,-0.4,42,29.96,10.0,SW,8.1,-,N/A,,Clear,220,2013-02-13 07:33:00
12:55 AM,19.4,-0.4,42,29.97,10.0,SW,6.9,-,N/A,,Clear,230,2013-02-13 07:55:00
1:15 AM,17.6,-0.4,45,29.97,10.0,SW,4.6,-,N/A,,Clear,230,2013-02-13 08:15:00
1:35 AM,17.6,-0.4,45,29.96,10.0,WSW,5.8,-,N/A,,Clear,240,2013-02-13 08:35:00
1:55 AM,19.4,1.4,46,29.96,10.0,WSW,6.9,-,N/A,,Scattered Clouds,250,2013-02-13 08:55:00
2:15 AM,19.4,3.2,49,29.95,10.0,WSW,8.1,-,N/A,,Clear,250,2013-02-13 09:15:00
2:35 AM,17.6,3.2,53,29.94,10.0,West,8.1,-,N/A,,Clear,260,2013-02-13 09:35:00
2:54 AM,17.6,3.2,53,29.93,10.0,WSW,8.1,-,N/A,,Clear,250,2013-02-13 09:54:00
3:15 AM,19.4,3.2,49,29.92,10.0,SW,6.9,-,N/A,,Clear,230,2013-02-13 10:15:00
3:35 AM,19.4,3.2,49,29.91,10.0,SSW,5.8,-,N/A,,Clear,210,2013-02-13 10:35:00
3:55 AM,19.4,1.4,46,29.92,10.0,SW,8.1,-,N/A,,Clear,230,2013-02-13 10:55:00
4:15 AM,17.6,3.2,53,29.92,10.0,SW,9.2,-,N/A,,Clear,230,2013-02-13 11:15:00
4:35 AM,17.6,3.2,53,29.91,10.0,SW,9.2,-,N/A,,Clear,220,2013-02-13 11:35:00
4:55 AM,14.0,5.0,67,29.91,10.0,SSW,6.9,-,N/A,,Clear,210,2013-02-13 11:55:00
5:13 AM,17.6,5.0,58,29.92,10.0,SW,6.9,-,N/A,,Clear,220,2013-02-13 12:13:00
5:35 AM,19.4,5.0,54,29.91,10.0,SW,9.2,-,N/A,,Clear,220,2013-02-13 12:35:00
5:55 AM,19.4,5.0,54,29.91,10.0,SW,10.4,-,N/A,,Clear,220,2013-02-13 12:55:00
6:15 AM,19.4,5.0,54,29.91,10.0,SW,10.4,-,N/A,,Clear,230,2013-02-13 13:15:00
6:34 AM,19.4,6.8,58,29.91,10.0,SW,9.2,-,N/A,,Clear,230,2013-02-13 13:34:00
6:54 AM,19.4,6.8,58,29.90,10.0,SW,10.4,-,N/A,,Clear,230,2013-02-13 13:54:00
7:14 AM,21.2,6.8,54,29.90,10.0,SSW,8.1,-,N/A,,Clear,210,2013-02-13 14:14:00
7:34 AM,21.2,8.6,58,29.90,10.0,SSW,6.9,-,N/A,,Clear,210,2013-02-13 14:34:00
7:54 AM,26.6,8.6,47,29.91,10.0,SW,10.4,-,N/A,,Clear,230,2013-02-13 14:54:00
8:14 AM,28.4,10.4,47,29.91,10.0,SW,8.1,-,N/A,,Clear,220,2013-02-13 15:14:00
8:34 AM,32.0,10.4,41,29.91,10.0,WSW,8.1,-,N/A,,Clear,240,2013-02-13 15:34:00
8:53 AM,33.8,10.4,38,29.91,10.0,SW,9.2,-,N/A,,Clear,230,2013-02-13 15:53:00
9:13 AM,35.6,8.6,33,29.91,10.0,SW,9.2,-,N/A,,Clear,230,2013-02-13 16:13:00
9:34 AM,35.6,8.6,33,29.91,10.0,SW,6.9,-,N/A,,Clear,230,2013-02-13 16:34:00
9:54 AM,37.4,8.6,30,29.91,10.0,WSW,9.2,-,N/A,,Clear,240,2013-02-13 16:54:00
10:14 AM,37.4,5.0,26,29.91,10.0,WSW,6.9,-,N/A,,Clear,250,2013-02-13 17:14:00
10:33 AM,41.0,5.0,23,29.90,10.0,WSW,3.5,-,N/A,,Clear,250,2013-02-13 17:33:00
10:54 AM,41.0,5.0,23,29.91,10.0,WNW,8.1,-,N/A,,Clear,290,2013-02-13 17:54:00
11:14 AM,41.0,3.2,21,29.92,10.0,NW,16.1,20.7,N/A,,Clear,320,2013-02-13 18:14:00
11:34 AM,41.0,5.0,23,29.93,10.0,NNW,12.7,-,N/A,,Clear,330,2013-02-13 18:34:00
11:53 AM,39.2,5.0,24,29.93,10.0,NNW,17.3,21.9,N/A,,Clear,340,2013-02-13 18:53:00
12:14 PM,39.2,5.0,24,29.93,10.0,NNW,15.0,21.9,N/A,,Clear,330,2013-02-13 19:14:00
12:34 PM,37.4,8.6,30,29.92,10.0,North,21.9,27.6,N/A,,Clear,350,2013-02-13 19:34:00
12:54 PM,37.4,8.6,30,29.92,10.0,NNW,18.4,26.5,N/A,,Clear,340,2013-02-13 19:54:00
1:14 PM,39.2,10.4,31,29.92,10.0,NNW,19.6,25.3,N/A,,Clear,340,2013-02-13 20:14:00
1:34 PM,37.4,8.6,30,29.92,10.0,North,20.7,28.8,N/A,,Clear,350,2013-02-13 20:34:00
1:54 PM,37.4,10.4,33,29.92,10.0,North,19.6,26.5,N/A,,Clear,350,2013-02-13 20:54:00
2:14 PM,39.2,10.4,31,29.92,10.0,NNW,17.3,25.3,N/A,,Clear,330,2013-02-13 21:14:00
2:34 PM,39.2,8.6,28,29.91,10.0,NW,23.0,27.6,N/A,,Clear,320,2013-02-13 21:34:00
2:54 PM,37.4,8.6,30,29.92,10.0,NNW,18.4,-,N/A,,Clear,330,2013-02-13 21:54:00
3:14 PM,35.6,8.6,33,29.93,10.0,North,17.3,-,N/A,,Clear,350,2013-02-13 22:14:00
3:34 PM,35.6,10.4,35,29.92,10.0,NNW,13.8,-,N/A,,Clear,340,2013-02-13 22:34:00
3:53 PM,35.6,10.4,35,29.92,10.0,NNW,13.8,-,N/A,,Clear,340,2013-02-13 22:53:00
4:14 PM,33.8,10.4,38,29.93,10.0,North,12.7,-,N/A,,Clear,350,2013-02-13 23:14:00
4:34 PM,33.8,10.4,38,29.92,10.0,NNW,9.2,-,N/A,,Clear,340,2013-02-13 23:34:00
4:55 PM,32.0,12.2,44,29.92,10.0,NNW,5.8,-,N/A,,Clear,340,2013-02-13 23:55:00
5:14 PM,32.0,12.2,44,29.93,10.0,Calm,Calm,-,N/A,,Clear,0,2013-02-14 00:14:00
5:34 PM,30.2,12.2,47,29.94,10.0,ENE,3.5,-,N/A,,Clear,60,2013-02-14 00:34:00
5:54 PM,30.2,12.2,47,29.94,10.0,Calm,Calm,-,N/A,,Clear,0,2013-02-14 00:54:00
6:13 PM,28.4,12.2,51,29.94,10.0,West,5.8,-,N/A,,Clear,280,2013-02-14 01:13:00
6:33 PM,28.4,12.2,51,29.94,10.0,West,4.6,-,N/A,,Clear,270,2013-02-14 01:33:00
6:54 PM,30.2,12.2,47,29.95,10.0,WNW,4.6,-,N/A,,Clear,290,2013-02-14 01:54:00
7:13 PM,30.2,12.2,47,29.96,10.0,West,5.8,-,N/A,,Clear,280,2013-02-14 02:13:00
7:33 PM,28.4,12.2,51,29.97,10.0,West,5.8,-,N/A,,Clear,280,2013-02-14 02:33:00
7:54 PM,26.6,12.2,55,29.97,10.0,West,5.8,-,N/A,,Clear,270,2013-02-14 02:54:00
8:13 PM,26.6,12.2,55,29.97,10.0,West,4.6,-,N/A,,Clear,260,2013-02-14 03:13:00
8:34 PM,23.0,12.2,63,29.97,10.0,WNW,4.6,-,N/A,,Clear,290,2013-02-14 03:34:00
8:53 PM,24.8,12.2,59,29.97,10.0,WNW,5.8,-,N/A,,Clear,300,2013-02-14 03:53:00
9:14 PM,23.0,10.4,59,29.98,10.0,WNW,3.5,-,N/A,,Clear,300,2013-02-14 04:14:00
9:34 PM,21.2,10.4,63,29.98,10.0,West,3.5,-,N/A,,Clear,280,2013-02-14 04:34:00
9:54 PM,23.0,12.2,63,29.99,10.0,WSW,6.9,-,N/A,,Clear,250,2013-02-14 04:54:00
10:14 PM,19.4,10.4,68,29.99,10.0,WSW,4.6,-,N/A,,Clear,240,2013-02-14 05:14:00
10:34 PM,23.0,10.4,59,29.99,10.0,WSW,4.6,-,N/A,,Clear,250,2013-02-14 05:34:00
10:54 PM,19.4,10.4,68,29.99,10.0,Calm,Calm,-,N/A,,Clear,0,2013-02-14 05:54:00
11:14 PM,17.6,10.4,73,29.99,10.0,SSE,4.6,-,N/A,,Clear,150,2013-02-14 06:14:00
11:34 PM,23.0,12.2,63,29.99,10.0,SSE,5.8,-,N/A,,Clear,150,2013-02-14 06:34:00
11:54 PM,21.2,12.2,68,29.99,10.0,South,5.8,-,N/A,,Clear,170,2013-02-14 06:54:00